Year,Month,Day,Hour,Minute,Value (Times are PST for temperature in C)
2017,06,29,00,00,15.20
2017,06,29,00,01,15.20
2017,06,29,00,02,15.20
2017,06,29,00,03,15.20
2017,06,29,00,04,15.20
2017,06,29,00,05,15.20
2017,06,29,00,06,15.10
2017,06,29,00,07,15.10
2017,06,29,00,08,15.10
2017,06,29,00,09,15.10
2017,06,29,00,10,15.10
2017,06,29,00,11,15.10
2017,06,29,00,12,15.10
2017,06,29,00,13,15.00
2017,06,29,00,14,15.00
2017,06,29,00,15,15.00
2017,06,29,00,16,15.00
2017,06,29,00,17,14.90
2017,06,29,00,18,14.90
2017,06,29,00,19,14.90
2017,06,29,00,20,14.90
2017,06,29,00,21,14.80
2017,06,29,00,22,14.80
2017,06,29,00,23,14.80
2017,06,29,00,24,14.80
2017,06,29,00,25,14.80
2017,06,29,00,26,14.80
2017,06,29,00,27,14.70
2017,06,29,00,28,14.70
2017,06,29,00,29,14.70
2017,06,29,00,30,14.70
2017,06,29,00,31,14.70
2017,06,29,00,32,14.70
2017,06,29,00,33,14.70
2017,06,29,00,34,14.60
2017,06,29,00,35,14.60
2017,06,29,00,36,14.60
2017,06,29,00,37,14.60
2017,06,29,00,38,14.60
2017,06,29,00,39,14.60
2017,06,29,00,40,14.60
2017,06,29,00,41,14.60
2017,06,29,00,42,14.60
2017,06,29,00,43,14.50
2017,06,29,00,44,14.50
2017,06,29,00,45,14.50
2017,06,29,00,46,14.50
2017,06,29,00,47,14.50
2017,06,29,00,48,14.40
2017,06,29,00,49,14.40
2017,06,29,00,50,14.40
2017,06,29,00,51,14.40
2017,06,29,00,52,14.40
2017,06,29,00,53,14.40
2017,06,29,00,54,14.40
2017,06,29,00,55,14.30
2017,06,29,00,56,14.30
2017,06,29,00,57,14.30
2017,06,29,00,58,14.30
2017,06,29,00,59,14.30
2017,06,29,01,00,14.30
2017,06,29,01,01,14.20
2017,06,29,01,02,14.20
2017,06,29,01,03,14.20
2017,06,29,01,04,14.20
2017,06,29,01,05,14.20
2017,06,29,01,06,14.20
2017,06,29,01,07,14.10
2017,06,29,01,08,14.10
2017,06,29,01,09,14.10
2017,06,29,01,10,14.10
2017,06,29,01,11,14.10
2017,06,29,01,12,14.00
2017,06,29,01,13,14.00
2017,06,29,01,14,14.00
2017,06,29,01,15,13.90
2017,06,29,01,16,13.90
2017,06,29,01,17,13.90
2017,06,29,01,18,13.90
2017,06,29,01,19,13.90
2017,06,29,01,20,13.80
2017,06,29,01,21,13.80
2017,06,29,01,22,13.80
2017,06,29,01,23,13.80
2017,06,29,01,24,13.80
2017,06,29,01,25,13.80
2017,06,29,01,26,13.80
2017,06,29,01,27,13.80
2017,06,29,01,28,13.80
2017,06,29,01,29,13.80
2017,06,29,01,30,13.80
2017,06,29,01,31,13.80
2017,06,29,01,32,13.80
2017,06,29,01,33,13.80
2017,06,29,01,34,13.80
2017,06,29,01,35,13.70
2017,06,29,01,36,13.70
2017,06,29,01,37,13.70
2017,06,29,01,38,13.70
2017,06,29,01,39,13.70
2017,06,29,01,40,13.70
2017,06,29,01,41,13.70
2017,06,29,01,42,13.70
2017,06,29,01,43,13.70
2017,06,29,01,44,13.70
2017,06,29,01,45,13.70
2017,06,29,01,46,13.70
2017,06,29,01,47,13.70
2017,06,29,01,48,13.70
2017,06,29,01,49,13.70
2017,06,29,01,50,13.70
2017,06,29,01,51,13.70
2017,06,29,01,52,13.70
2017,06,29,01,53,13.70
2017,06,29,01,54,13.70
2017,06,29,01,55,13.70
2017,06,29,01,56,13.70
2017,06,29,01,57,13.60
2017,06,29,01,58,13.60
2017,06,29,01,59,13.60
2017,06,29,02,00,13.60
2017,06,29,02,01,13.60
2017,06,29,02,02,13.60
2017,06,29,02,03,13.60
2017,06,29,02,04,13.60
2017,06,29,02,05,13.60
2017,06,29,02,06,13.50
2017,06,29,02,07,13.50
2017,06,29,02,08,13.50
2017,06,29,02,09,13.50
2017,06,29,02,10,13.50
2017,06,29,02,11,13.40
2017,06,29,02,12,13.40
2017,06,29,02,13,13.40
2017,06,29,02,14,13.40
2017,06,29,02,15,13.40
2017,06,29,02,16,13.40
2017,06,29,02,17,13.40
2017,06,29,02,18,13.30
2017,06,29,02,19,13.30
2017,06,29,02,20,13.30
2017,06,29,02,21,13.30
2017,06,29,02,22,13.30
2017,06,29,02,23,13.30
2017,06,29,02,24,13.30
2017,06,29,02,25,13.30
2017,06,29,02,26,13.30
2017,06,29,02,27,13.30
2017,06,29,02,28,13.20
2017,06,29,02,29,13.20
2017,06,29,02,30,13.20
2017,06,29,02,31,13.20
2017,06,29,02,32,13.20
2017,06,29,02,33,13.20
2017,06,29,02,34,13.20
2017,06,29,02,35,13.10
2017,06,29,02,36,13.10
2017,06,29,02,37,13.10
2017,06,29,02,38,13.10
2017,06,29,02,39,13.10
2017,06,29,02,40,13.10
2017,06,29,02,41,13.10
2017,06,29,02,42,13.10
2017,06,29,02,43,13.10
2017,06,29,02,44,13.10
2017,06,29,02,45,13.00
2017,06,29,02,46,13.00
2017,06,29,02,47,13.00
2017,06,29,02,48,13.00
2017,06,29,02,49,13.00
2017,06,29,02,50,12.90
2017,06,29,02,51,12.90
2017,06,29,02,52,12.90
2017,06,29,02,53,12.90
2017,06,29,02,54,12.90
2017,06,29,02,55,12.90
2017,06,29,02,56,12.90
2017,06,29,02,57,12.90
2017,06,29,02,58,12.90
2017,06,29,02,59,12.80
2017,06,29,03,00,12.80
2017,06,29,03,01,12.80
2017,06,29,03,02,12.80
2017,06,29,03,03,12.80
2017,06,29,03,04,12.80
2017,06,29,03,05,12.80
2017,06,29,03,06,12.80
2017,06,29,03,07,12.70
2017,06,29,03,08,12.70
2017,06,29,03,09,12.70
2017,06,29,03,10,12.70
2017,06,29,03,11,12.70
2017,06,29,03,12,12.70
2017,06,29,03,13,12.70
2017,06,29,03,14,12.60
2017,06,29,03,15,12.60
2017,06,29,03,16,12.60
2017,06,29,03,17,12.60
2017,06,29,03,18,12.50
2017,06,29,03,19,12.50
2017,06,29,03,20,12.50
2017,06,29,03,21,12.40
2017,06,29,03,22,12.40
2017,06,29,03,23,12.40
2017,06,29,03,24,12.40
2017,06,29,03,25,12.40
2017,06,29,03,26,12.30
2017,06,29,03,27,12.30
2017,06,29,03,28,12.30
2017,06,29,03,29,12.30
2017,06,29,03,30,12.20
2017,06,29,03,31,12.20
2017,06,29,03,32,12.20
2017,06,29,03,33,12.20
2017,06,29,03,34,12.20
2017,06,29,03,35,12.20
2017,06,29,03,36,12.20
2017,06,29,03,37,12.20
2017,06,29,03,38,12.20
2017,06,29,03,39,12.10
2017,06,29,03,40,12.10
2017,06,29,03,41,12.10
2017,06,29,03,42,12.10
2017,06,29,03,43,12.10
2017,06,29,03,44,12.00
2017,06,29,03,45,12.00
2017,06,29,03,46,12.00
2017,06,29,03,47,12.00
2017,06,29,03,48,12.00
2017,06,29,03,49,12.00
2017,06,29,03,50,12.00
2017,06,29,03,51,12.10
2017,06,29,03,52,12.10
2017,06,29,03,53,12.10
2017,06,29,03,54,12.10
2017,06,29,03,55,12.10
2017,06,29,03,56,12.10
2017,06,29,03,57,12.10
2017,06,29,03,58,12.10
2017,06,29,03,59,12.10
2017,06,29,04,00,12.10
2017,06,29,04,01,12.10
2017,06,29,04,02,12.20
2017,06,29,04,03,12.20
2017,06,29,04,04,12.20
2017,06,29,04,05,12.20
2017,06,29,04,06,12.30
2017,06,29,04,07,12.30
2017,06,29,04,08,12.30
2017,06,29,04,09,12.30
2017,06,29,04,10,12.30
2017,06,29,04,11,12.30
2017,06,29,04,12,12.40
2017,06,29,04,13,12.40
2017,06,29,04,14,12.40
2017,06,29,04,15,12.40
2017,06,29,04,16,12.40
2017,06,29,04,17,12.40
2017,06,29,04,18,12.50
2017,06,29,04,19,12.50
2017,06,29,04,20,12.50
2017,06,29,04,21,12.60
2017,06,29,04,22,12.60
2017,06,29,04,23,12.60
2017,06,29,04,24,12.60
2017,06,29,04,25,12.60
2017,06,29,04,26,12.60
2017,06,29,04,27,12.70
2017,06,29,04,28,12.70
2017,06,29,04,29,12.70
2017,06,29,04,30,12.70
2017,06,29,04,31,12.70
2017,06,29,04,32,12.70
2017,06,29,04,33,12.70
2017,06,29,04,34,12.70
2017,06,29,04,35,12.70
2017,06,29,04,36,12.70
2017,06,29,04,37,12.70
2017,06,29,04,38,12.70
2017,06,29,04,39,12.70
2017,06,29,04,40,12.70
2017,06,29,04,41,12.70
2017,06,29,04,42,12.70
2017,06,29,04,43,12.70
2017,06,29,04,44,12.70
2017,06,29,04,45,12.70
2017,06,29,04,46,12.70
2017,06,29,04,47,12.70
2017,06,29,04,48,12.70
2017,06,29,04,49,12.70
2017,06,29,04,50,12.60
2017,06,29,04,51,12.60
2017,06,29,04,52,12.60
2017,06,29,04,53,12.60
2017,06,29,04,54,12.60
2017,06,29,04,55,12.60
2017,06,29,04,56,12.60
2017,06,29,04,57,12.60
2017,06,29,04,58,12.60
2017,06,29,04,59,12.60
2017,06,29,05,00,12.60
2017,06,29,05,01,12.60
2017,06,29,05,02,12.60
2017,06,29,05,03,12.60
2017,06,29,05,04,12.60
2017,06,29,05,05,12.60
2017,06,29,05,06,12.60
2017,06,29,05,07,12.60
2017,06,29,05,08,12.60
2017,06,29,05,09,12.60
2017,06,29,05,10,12.60
2017,06,29,05,11,12.60
2017,06,29,05,12,12.60
2017,06,29,05,13,12.60
2017,06,29,05,14,12.60
2017,06,29,05,15,12.60
2017,06,29,05,16,12.50
2017,06,29,05,17,12.50
2017,06,29,05,18,12.50
2017,06,29,05,19,12.50
2017,06,29,05,20,12.50
2017,06,29,05,21,12.50
2017,06,29,05,22,12.50
2017,06,29,05,23,12.50
2017,06,29,05,24,12.50
2017,06,29,05,25,12.50
2017,06,29,05,26,12.50
2017,06,29,05,27,12.50
2017,06,29,05,28,12.40
2017,06,29,05,29,12.40
2017,06,29,05,30,12.40
2017,06,29,05,31,12.40
2017,06,29,05,32,12.40
2017,06,29,05,33,12.40
2017,06,29,05,34,12.40
2017,06,29,05,35,12.40
2017,06,29,05,36,12.30
2017,06,29,05,37,12.30
2017,06,29,05,38,12.30
2017,06,29,05,39,12.30
2017,06,29,05,40,12.30
2017,06,29,05,41,12.30
2017,06,29,05,42,12.30
2017,06,29,05,43,12.30
2017,06,29,05,44,12.20
2017,06,29,05,45,12.20
2017,06,29,05,46,12.20
2017,06,29,05,47,12.20
2017,06,29,05,48,12.20
2017,06,29,05,49,12.20
2017,06,29,05,50,12.20
2017,06,29,05,51,12.20
2017,06,29,05,52,12.20
2017,06,29,05,53,12.20
2017,06,29,05,54,12.20
2017,06,29,05,55,12.20
2017,06,29,05,56,12.20
2017,06,29,05,57,12.20
2017,06,29,05,58,12.20
2017,06,29,05,59,12.30
2017,06,29,06,00,12.30
2017,06,29,06,01,12.20
2017,06,29,06,02,12.20
2017,06,29,06,03,12.20
2017,06,29,06,04,12.20
2017,06,29,06,05,12.20
2017,06,29,06,06,12.20
2017,06,29,06,07,12.20
2017,06,29,06,08,12.20
2017,06,29,06,09,12.20
2017,06,29,06,10,12.20
2017,06,29,06,11,12.20
2017,06,29,06,12,12.20
2017,06,29,06,13,12.20
2017,06,29,06,14,12.20
2017,06,29,06,15,12.10
2017,06,29,06,16,12.10
2017,06,29,06,17,12.10
2017,06,29,06,18,12.10
2017,06,29,06,19,12.10
2017,06,29,06,20,12.10
2017,06,29,06,21,12.10
2017,06,29,06,22,12.10
2017,06,29,06,23,12.00
2017,06,29,06,24,12.00
2017,06,29,06,25,12.00
2017,06,29,06,26,12.00
2017,06,29,06,27,12.10
2017,06,29,06,28,12.10
2017,06,29,06,29,12.10
2017,06,29,06,30,12.20
2017,06,29,06,31,12.20
2017,06,29,06,32,12.30
2017,06,29,06,33,12.40
2017,06,29,06,34,12.40
2017,06,29,06,35,12.50
2017,06,29,06,36,12.60
2017,06,29,06,37,12.60
2017,06,29,06,38,12.70
2017,06,29,06,39,12.80
2017,06,29,06,40,12.90
2017,06,29,06,41,13.00
2017,06,29,06,42,13.10
2017,06,29,06,43,13.20
2017,06,29,06,44,13.30
2017,06,29,06,45,13.40
2017,06,29,06,46,13.40
2017,06,29,06,47,13.60
2017,06,29,06,48,13.60
2017,06,29,06,49,13.70
2017,06,29,06,50,13.80
2017,06,29,06,51,13.80
2017,06,29,06,52,13.90
2017,06,29,06,53,14.00
2017,06,29,06,54,14.00
2017,06,29,06,55,14.10
2017,06,29,06,56,14.20
2017,06,29,06,57,14.20
2017,06,29,06,58,14.20
2017,06,29,06,59,14.30
2017,06,29,07,00,14.30
2017,06,29,07,01,14.30
2017,06,29,07,02,14.40
2017,06,29,07,03,14.40
2017,06,29,07,04,14.50
2017,06,29,07,05,14.60
2017,06,29,07,06,14.60
2017,06,29,07,07,14.60
2017,06,29,07,08,14.60
2017,06,29,07,09,14.60
2017,06,29,07,10,14.60
2017,06,29,07,11,14.60
2017,06,29,07,12,14.70
2017,06,29,07,13,14.70
2017,06,29,07,14,14.70
2017,06,29,07,15,14.70
2017,06,29,07,16,14.70
2017,06,29,07,17,14.70
2017,06,29,07,18,14.80
2017,06,29,07,19,14.80
2017,06,29,07,20,14.90
2017,06,29,07,21,14.90
2017,06,29,07,22,15.00
2017,06,29,07,23,15.00
2017,06,29,07,24,15.10
2017,06,29,07,25,15.20
2017,06,29,07,26,15.20
2017,06,29,07,27,15.20
2017,06,29,07,28,15.30
2017,06,29,07,29,15.30
2017,06,29,07,30,15.30
2017,06,29,07,31,15.30
2017,06,29,07,32,15.40
2017,06,29,07,33,15.40
2017,06,29,07,34,15.40
2017,06,29,07,35,15.40
2017,06,29,07,36,15.40
2017,06,29,07,37,15.50
2017,06,29,07,38,15.50
2017,06,29,07,39,15.60
2017,06,29,07,40,15.70
2017,06,29,07,41,15.80
2017,06,29,07,42,15.80
2017,06,29,07,43,15.80
2017,06,29,07,44,15.90
2017,06,29,07,45,15.90
2017,06,29,07,46,15.90
2017,06,29,07,47,15.90
2017,06,29,07,48,15.90
2017,06,29,07,49,16.00
2017,06,29,07,50,16.10
2017,06,29,07,51,16.10
2017,06,29,07,52,16.20
2017,06,29,07,53,16.20
2017,06,29,07,54,16.20
2017,06,29,07,55,16.20
2017,06,29,07,56,16.20
2017,06,29,07,57,16.20
2017,06,29,07,58,16.30
2017,06,29,07,59,16.30
2017,06,29,08,00,16.30
2017,06,29,08,01,16.30
2017,06,29,08,02,16.30
2017,06,29,08,03,16.30
2017,06,29,08,04,16.30
2017,06,29,08,05,16.30
2017,06,29,08,06,16.20
2017,06,29,08,07,16.20
2017,06,29,08,08,16.20
2017,06,29,08,09,16.20
2017,06,29,08,10,16.30
2017,06,29,08,11,16.30
2017,06,29,08,12,16.40
2017,06,29,08,13,16.40
2017,06,29,08,14,16.40
2017,06,29,08,15,16.30
2017,06,29,08,16,16.30
2017,06,29,08,17,16.30
2017,06,29,08,18,16.30
2017,06,29,08,19,16.30
2017,06,29,08,20,16.30
2017,06,29,08,21,16.30
2017,06,29,08,22,16.30
2017,06,29,08,23,16.30
2017,06,29,08,24,16.30
2017,06,29,08,25,16.30
2017,06,29,08,26,16.30
2017,06,29,08,27,16.30
2017,06,29,08,28,16.30
2017,06,29,08,29,16.40
2017,06,29,08,30,16.40
2017,06,29,08,31,16.50
2017,06,29,08,32,16.50
2017,06,29,08,33,16.60
2017,06,29,08,34,16.70
2017,06,29,08,35,16.80
2017,06,29,08,36,16.90
2017,06,29,08,37,16.90
2017,06,29,08,38,17.00
2017,06,29,08,39,17.00
2017,06,29,08,40,17.00
2017,06,29,08,41,17.00
2017,06,29,08,42,17.00
2017,06,29,08,43,17.10
2017,06,29,08,44,17.10
2017,06,29,08,45,17.20
2017,06,29,08,46,17.30
2017,06,29,08,47,17.40
2017,06,29,08,48,17.50
2017,06,29,08,49,17.60
2017,06,29,08,50,17.60
2017,06,29,08,51,17.70
2017,06,29,08,52,17.70
2017,06,29,08,53,17.80
2017,06,29,08,54,17.80
2017,06,29,08,55,17.90
2017,06,29,08,56,18.00
2017,06,29,08,57,18.20
2017,06,29,08,58,18.20
2017,06,29,08,59,18.20
2017,06,29,09,00,18.20
2017,06,29,09,01,18.10
2017,06,29,09,02,18.10
2017,06,29,09,03,18.00
2017,06,29,09,04,17.90
2017,06,29,09,05,17.80
2017,06,29,09,06,17.80
2017,06,29,09,07,17.70
2017,06,29,09,08,17.70
2017,06,29,09,09,17.70
2017,06,29,09,10,17.70
2017,06,29,09,11,17.60
2017,06,29,09,12,17.60
2017,06,29,09,13,17.50
2017,06,29,09,14,17.50
2017,06,29,09,15,17.40
2017,06,29,09,16,17.40
2017,06,29,09,17,17.50
2017,06,29,09,18,17.50
2017,06,29,09,19,17.50
2017,06,29,09,20,17.50
2017,06,29,09,21,17.60
2017,06,29,09,22,17.60
2017,06,29,09,23,17.70
2017,06,29,09,24,17.70
2017,06,29,09,25,17.70
2017,06,29,09,26,17.70
2017,06,29,09,27,17.80
2017,06,29,09,28,17.80
2017,06,29,09,29,17.80
2017,06,29,09,30,17.80
2017,06,29,09,31,17.80
2017,06,29,09,32,17.80
2017,06,29,09,33,17.70
2017,06,29,09,34,17.80
2017,06,29,09,35,17.80
2017,06,29,09,36,17.80
2017,06,29,09,37,17.80
2017,06,29,09,38,17.70
2017,06,29,09,39,17.70
2017,06,29,09,40,17.70
2017,06,29,09,41,17.70
2017,06,29,09,42,17.60
2017,06,29,09,43,17.70
2017,06,29,09,44,17.70
2017,06,29,09,45,17.70
2017,06,29,09,46,17.70
2017,06,29,09,47,17.70
2017,06,29,09,48,17.70
2017,06,29,09,49,17.70
2017,06,29,09,50,17.70
2017,06,29,09,51,17.70
2017,06,29,09,52,17.70
2017,06,29,09,53,17.70
2017,06,29,09,54,17.80
2017,06,29,09,55,17.80
2017,06,29,09,56,17.80
2017,06,29,09,57,17.80
2017,06,29,09,58,17.80
2017,06,29,09,59,17.80
2017,06,29,10,00,17.80
2017,06,29,10,01,17.80
2017,06,29,10,02,17.80
2017,06,29,10,03,17.90
2017,06,29,10,04,17.90
2017,06,29,10,05,17.80
2017,06,29,10,06,17.90
2017,06,29,10,07,17.90
2017,06,29,10,08,18.00
2017,06,29,10,09,18.10
2017,06,29,10,10,18.10
2017,06,29,10,11,18.20
2017,06,29,10,12,18.20
2017,06,29,10,13,18.20
2017,06,29,10,14,18.20
2017,06,29,10,15,18.20
2017,06,29,10,16,18.20
2017,06,29,10,17,18.20
2017,06,29,10,18,18.20
2017,06,29,10,19,18.30
2017,06,29,10,20,18.40
2017,06,29,10,21,18.50
2017,06,29,10,22,18.50
2017,06,29,10,23,18.50
2017,06,29,10,24,18.50
2017,06,29,10,25,18.60
2017,06,29,10,26,18.60
2017,06,29,10,27,18.60
2017,06,29,10,28,18.60
2017,06,29,10,29,18.60
2017,06,29,10,30,18.70
2017,06,29,10,31,18.70
2017,06,29,10,32,18.70
2017,06,29,10,33,18.70
2017,06,29,10,34,18.80
2017,06,29,10,35,18.80
2017,06,29,10,36,18.80
2017,06,29,10,37,18.80
2017,06,29,10,38,18.80
2017,06,29,10,39,18.90
2017,06,29,10,40,18.90
2017,06,29,10,41,19.00
2017,06,29,10,42,19.00
2017,06,29,10,43,18.90
2017,06,29,10,44,18.90
2017,06,29,10,45,18.90
2017,06,29,10,46,19.00
2017,06,29,10,47,19.00
2017,06,29,10,48,19.00
2017,06,29,10,49,18.90
2017,06,29,10,50,19.00
2017,06,29,10,51,19.00
2017,06,29,10,52,19.00
2017,06,29,10,53,19.10
2017,06,29,10,54,19.10
2017,06,29,10,55,19.20
2017,06,29,10,56,19.30
2017,06,29,10,57,19.40
2017,06,29,10,58,19.50
2017,06,29,10,59,19.60
2017,06,29,11,00,19.70
2017,06,29,11,01,19.70
2017,06,29,11,02,19.70
2017,06,29,11,03,19.70
2017,06,29,11,04,19.80
2017,06,29,11,05,19.80
2017,06,29,11,06,19.80
2017,06,29,11,07,19.80
2017,06,29,11,08,19.70
2017,06,29,11,09,19.70
2017,06,29,11,10,19.70
2017,06,29,11,11,19.70
2017,06,29,11,12,19.70
2017,06,29,11,13,19.70
2017,06,29,11,14,19.60
2017,06,29,11,15,19.40
2017,06,29,11,16,19.30
2017,06,29,11,17,19.30
2017,06,29,11,18,19.20
2017,06,29,11,19,19.20
2017,06,29,11,20,19.20
2017,06,29,11,21,19.30
2017,06,29,11,22,19.30
2017,06,29,11,23,19.30
2017,06,29,11,24,19.30
2017,06,29,11,25,19.30
2017,06,29,11,26,19.40
2017,06,29,11,27,19.30
2017,06,29,11,28,19.30
2017,06,29,11,29,19.30
2017,06,29,11,30,19.20
2017,06,29,11,31,19.30
2017,06,29,11,32,19.30
2017,06,29,11,33,19.30
2017,06,29,11,34,19.30
2017,06,29,11,35,19.30
2017,06,29,11,36,19.30
2017,06,29,11,37,19.30
2017,06,29,11,38,19.30
2017,06,29,11,39,19.40
2017,06,29,11,40,19.40
2017,06,29,11,41,19.50
2017,06,29,11,42,19.50
2017,06,29,11,43,19.60
2017,06,29,11,44,19.50
2017,06,29,11,45,19.50
2017,06,29,11,46,19.50
2017,06,29,11,47,19.60
2017,06,29,11,48,19.60
2017,06,29,11,49,19.70
2017,06,29,11,50,19.80
2017,06,29,11,51,19.80
2017,06,29,11,52,19.80
2017,06,29,11,53,19.80
2017,06,29,11,54,19.80
2017,06,29,11,55,19.80
2017,06,29,11,56,19.80
2017,06,29,11,57,19.90
2017,06,29,11,58,19.80
2017,06,29,11,59,19.80
2017,06,29,12,00,19.80
2017,06,29,12,01,19.80
2017,06,29,12,02,19.80
2017,06,29,12,03,19.80
2017,06,29,12,04,19.80
2017,06,29,12,05,19.80
2017,06,29,12,06,19.80
2017,06,29,12,07,19.80
2017,06,29,12,08,19.70
2017,06,29,12,09,19.70
2017,06,29,12,10,19.80
2017,06,29,12,11,19.80
2017,06,29,12,12,19.80
2017,06,29,12,13,19.80
2017,06,29,12,14,19.80
2017,06,29,12,15,19.80
2017,06,29,12,16,19.90
2017,06,29,12,17,19.90
2017,06,29,12,18,20.00
2017,06,29,12,19,20.00
2017,06,29,12,20,20.10
2017,06,29,12,21,20.10
2017,06,29,12,22,20.10
2017,06,29,12,23,20.20
2017,06,29,12,24,20.20
2017,06,29,12,25,20.10
2017,06,29,12,26,20.10
2017,06,29,12,27,20.10
2017,06,29,12,28,20.20
2017,06,29,12,29,20.30
2017,06,29,12,30,20.30
2017,06,29,12,31,20.40
2017,06,29,12,32,20.50
2017,06,29,12,33,20.50
2017,06,29,12,34,20.50
2017,06,29,12,35,20.50
2017,06,29,12,36,20.40
2017,06,29,12,37,20.40
2017,06,29,12,38,20.40
2017,06,29,12,39,20.40
2017,06,29,12,40,20.50
2017,06,29,12,41,20.50
2017,06,29,12,42,20.50
2017,06,29,12,43,20.50
2017,06,29,12,44,20.40
2017,06,29,12,45,20.40
2017,06,29,12,46,20.40
2017,06,29,12,47,20.50
2017,06,29,12,48,20.50
2017,06,29,12,49,20.40
2017,06,29,12,50,20.50
2017,06,29,12,51,20.50
2017,06,29,12,52,20.40
2017,06,29,12,53,20.40
2017,06,29,12,54,20.40
2017,06,29,12,55,20.40
2017,06,29,12,56,20.40
2017,06,29,12,57,20.40
2017,06,29,12,58,20.30
2017,06,29,12,59,20.40
2017,06,29,13,00,20.40
2017,06,29,13,01,20.50
2017,06,29,13,02,20.50
2017,06,29,13,03,20.50
2017,06,29,13,04,20.50
2017,06,29,13,05,20.60
2017,06,29,13,06,20.60
2017,06,29,13,07,20.60
2017,06,29,13,08,20.60
2017,06,29,13,09,20.60
2017,06,29,13,10,20.70
2017,06,29,13,11,20.70
2017,06,29,13,12,20.70
2017,06,29,13,13,20.80
2017,06,29,13,14,20.90
2017,06,29,13,15,20.90
2017,06,29,13,16,20.90
2017,06,29,13,17,20.90
2017,06,29,13,18,20.80
2017,06,29,13,19,20.80
2017,06,29,13,20,20.80
2017,06,29,13,21,20.90
2017,06,29,13,22,21.00
2017,06,29,13,23,21.10
2017,06,29,13,24,21.20
2017,06,29,13,25,21.30
2017,06,29,13,26,21.30
2017,06,29,13,27,21.30
2017,06,29,13,28,21.30
2017,06,29,13,29,21.30
2017,06,29,13,30,21.40
2017,06,29,13,31,21.40
2017,06,29,13,32,21.50
2017,06,29,13,33,21.60
2017,06,29,13,34,21.70
2017,06,29,13,35,21.70
2017,06,29,13,36,21.80
2017,06,29,13,37,21.80
2017,06,29,13,38,21.90
2017,06,29,13,39,21.90
2017,06,29,13,40,21.90
2017,06,29,13,41,21.90
2017,06,29,13,42,21.90
2017,06,29,13,43,21.90
2017,06,29,13,44,22.00
2017,06,29,13,45,22.00
2017,06,29,13,46,22.10
2017,06,29,13,47,22.10
2017,06,29,13,48,22.00
2017,06,29,13,49,21.90
2017,06,29,13,50,21.90
2017,06,29,13,51,21.90
2017,06,29,13,52,22.00
2017,06,29,13,53,22.00
2017,06,29,13,54,22.10
2017,06,29,13,55,22.10
2017,06,29,13,56,22.10
2017,06,29,13,57,22.20
2017,06,29,13,58,22.30
2017,06,29,13,59,22.30
2017,06,29,14,00,22.40
2017,06,29,14,01,22.50
2017,06,29,14,02,22.60
2017,06,29,14,03,22.70
2017,06,29,14,04,22.60
2017,06,29,14,05,22.60
2017,06,29,14,06,22.60
2017,06,29,14,07,22.50
2017,06,29,14,08,22.40
2017,06,29,14,09,22.40
2017,06,29,14,10,22.30
2017,06,29,14,11,22.30
2017,06,29,14,12,22.30
2017,06,29,14,13,22.40
2017,06,29,14,14,22.40
2017,06,29,14,15,22.40
2017,06,29,14,16,22.50
2017,06,29,14,17,22.70
2017,06,29,14,18,22.80
2017,06,29,14,19,22.80
2017,06,29,14,20,22.80
2017,06,29,14,21,22.80
2017,06,29,14,22,22.80
2017,06,29,14,23,22.80
2017,06,29,14,24,22.80
2017,06,29,14,25,22.70
2017,06,29,14,26,22.60
2017,06,29,14,27,22.50
2017,06,29,14,28,22.40
2017,06,29,14,29,22.40
2017,06,29,14,30,22.50
2017,06,29,14,31,22.60
2017,06,29,14,32,22.70
2017,06,29,14,33,22.70
2017,06,29,14,34,22.70
2017,06,29,14,35,22.70
2017,06,29,14,36,22.60
2017,06,29,14,37,22.50
2017,06,29,14,38,22.40
2017,06,29,14,39,22.40
2017,06,29,14,40,22.50
2017,06,29,14,41,22.50
2017,06,29,14,42,22.60
2017,06,29,14,43,22.60
2017,06,29,14,44,22.50
2017,06,29,14,45,22.40
2017,06,29,14,46,22.40
2017,06,29,14,47,22.40
2017,06,29,14,48,22.40
2017,06,29,14,49,22.40
2017,06,29,14,50,22.50
2017,06,29,14,51,22.70
2017,06,29,14,52,22.80
2017,06,29,14,53,22.90
2017,06,29,14,54,22.90
2017,06,29,14,55,22.90
2017,06,29,14,56,22.90
2017,06,29,14,57,22.90
2017,06,29,14,58,23.00
2017,06,29,14,59,23.10
2017,06,29,15,00,23.20
2017,06,29,15,01,23.20
2017,06,29,15,02,23.10
2017,06,29,15,03,23.00
2017,06,29,15,04,23.00
2017,06,29,15,05,22.90
2017,06,29,15,06,22.90
2017,06,29,15,07,23.00
2017,06,29,15,08,23.00
2017,06,29,15,09,23.00
2017,06,29,15,10,23.00
2017,06,29,15,11,23.10
2017,06,29,15,12,23.20
2017,06,29,15,13,23.20
2017,06,29,15,14,23.10
2017,06,29,15,15,23.00
2017,06,29,15,16,23.00
2017,06,29,15,17,22.90
2017,06,29,15,18,22.90
2017,06,29,15,19,23.00
2017,06,29,15,20,23.00
2017,06,29,15,21,23.10
2017,06,29,15,22,23.10
2017,06,29,15,23,23.20
2017,06,29,15,24,23.20
2017,06,29,15,25,23.20
2017,06,29,15,26,23.10
2017,06,29,15,27,23.10
2017,06,29,15,28,23.20
2017,06,29,15,29,23.20
2017,06,29,15,30,23.20
2017,06,29,15,31,23.20
2017,06,29,15,32,23.20
2017,06,29,15,33,23.20
2017,06,29,15,34,23.10
2017,06,29,15,35,23.10
2017,06,29,15,36,23.00
2017,06,29,15,37,23.00
2017,06,29,15,38,23.00
2017,06,29,15,39,23.10
2017,06,29,15,40,23.20
2017,06,29,15,41,23.20
2017,06,29,15,42,23.20
2017,06,29,15,43,23.30
2017,06,29,15,44,23.30
2017,06,29,15,45,23.40
2017,06,29,15,46,23.40
2017,06,29,15,47,23.50
2017,06,29,15,48,23.50
2017,06,29,15,49,23.50
2017,06,29,15,50,23.60
2017,06,29,15,51,23.60
2017,06,29,15,52,23.60
2017,06,29,15,53,23.60
2017,06,29,15,54,23.60
2017,06,29,15,55,23.60
2017,06,29,15,56,23.60
2017,06,29,15,57,23.60
2017,06,29,15,58,23.60
2017,06,29,15,59,23.70
2017,06,29,16,00,23.80
2017,06,29,16,01,23.80
2017,06,29,16,02,23.80
2017,06,29,16,03,23.80
2017,06,29,16,04,23.80
2017,06,29,16,05,23.80
2017,06,29,16,06,23.80
2017,06,29,16,07,23.80
2017,06,29,16,08,23.80
2017,06,29,16,09,23.70
2017,06,29,16,10,23.70
2017,06,29,16,11,23.70
2017,06,29,16,12,23.60
2017,06,29,16,13,23.60
2017,06,29,16,14,23.70
2017,06,29,16,15,23.70
2017,06,29,16,16,23.80
2017,06,29,16,17,23.90
2017,06,29,16,18,23.90
2017,06,29,16,19,23.90
2017,06,29,16,20,23.90
2017,06,29,16,21,23.80
2017,06,29,16,22,23.80
2017,06,29,16,23,23.80
2017,06,29,16,24,23.80
2017,06,29,16,25,23.80
2017,06,29,16,26,23.80
2017,06,29,16,27,23.80
2017,06,29,16,28,23.80
2017,06,29,16,29,23.80
2017,06,29,16,30,23.80
2017,06,29,16,31,23.70
2017,06,29,16,32,23.70
2017,06,29,16,33,23.70
2017,06,29,16,34,23.60
2017,06,29,16,35,23.60
2017,06,29,16,36,23.60
2017,06,29,16,37,23.70
2017,06,29,16,38,23.70
2017,06,29,16,39,23.80
2017,06,29,16,40,23.90
2017,06,29,16,41,23.90
2017,06,29,16,42,23.90
2017,06,29,16,43,23.90
2017,06,29,16,44,23.90
2017,06,29,16,45,24.00
2017,06,29,16,46,24.00
2017,06,29,16,47,23.90
2017,06,29,16,48,23.90
2017,06,29,16,49,23.80
2017,06,29,16,50,23.80
2017,06,29,16,51,23.80
2017,06,29,16,52,23.70
2017,06,29,16,53,23.70
2017,06,29,16,54,23.70
2017,06,29,16,55,23.70
2017,06,29,16,56,23.70
2017,06,29,16,57,23.80
2017,06,29,16,58,23.80
2017,06,29,16,59,23.90
2017,06,29,17,00,23.90
2017,06,29,17,01,23.90
2017,06,29,17,02,24.00
2017,06,29,17,03,24.00
2017,06,29,17,04,24.10
2017,06,29,17,05,24.10
2017,06,29,17,06,24.10
2017,06,29,17,07,24.10
2017,06,29,17,08,24.10
2017,06,29,17,09,24.10
2017,06,29,17,10,24.10
2017,06,29,17,11,24.20
2017,06,29,17,12,24.20
2017,06,29,17,13,24.20
2017,06,29,17,14,24.30
2017,06,29,17,15,24.40
2017,06,29,17,16,24.40
2017,06,29,17,17,24.60
2017,06,29,17,18,24.70
2017,06,29,17,19,24.70